Home   Weather   Columbus Township Park   Past weeks
Flag for USA

Past Weather in Columbus Township Park, Michigan, USA — Yesterday and Last 2 Weeks

Now
66 °F

Mostly cloudy.


Feels Like: 66 °F
Forecast: 76 / 65 °F
Wind: 8 mph from Southwest

Location: Schoolcraft County Airport

Current Time: Jul 16, 2019 at 2:48:42 am

Latest Report: Jul 16, 2019 at 1:58 am


Visibility: 10 mi

Pressure: 29.85 "Hg

Humidity: 98%

Dew Point: 65 °F

Location of Columbus Township ParkLocation

Past Weather in Columbus Township Park — Graph

°F

Columbus Township Park Temperature Yesterday

Maximum temperature yesterday: 72 °F (at 6:19 pm)
Minimum temperature yesterday: 59 °F (at 12:37 am)
Average temperature yesterday: 66 °F

High & Low Weather Summary for the Past Weeks

 TemperatureHumidityPressure
High82 °F (Jul 5, 4:15 pm)98% (Jul 9, 7:15 am)30.16 "Hg (Jul 9, 7:15 am)
Low44 °F (Jul 12, 5:35 am)29% (Jul 6, 4:35 pm)29.71 "Hg (Jul 10, 7:58 pm)
Average64 °F81%29.97 "Hg
* Reported Jul 1 3:15 am — Jul 16 1:35 am, Columbus Township Park. Weather by CustomWeather, © 2019

Note: Actual official high and low records may vary slightly from our data, if they occured in-between our weather recording intervals... More about our weather records

Advertising

Columbus Township Park Weather History for the Previous 24 Hours

Scroll right to see more
 ConditionsComfort  
Time TempWeatherWind HumidityBarometerVisibility
1:35 am
Tue, Jul 16
67 °FLight rain. Partly cloudy.8 mph97%29.85 "Hg10 mi
1:15 am66 °FPassing clouds.9 mph98%29.84 "Hg10 mi
12:56 am67 °FLight rain. Partly cloudy.5 mph98%29.83 "Hg10 mi
12:37 am67 °FLight rain. Mostly cloudy.5 mph98%29.83 "Hg10 mi
12:19 am68 °FLight rain. Mostly cloudy.6 mph97%29.85 "Hg10 mi
11:55 pm
Mon, Jul 15
69 °FHeavy rain. Overcast.No wind96%29.85 "Hg2 mi
11:36 pm70 °FHeavy rain. Overcast.9 mph93%29.85 "Hg7 mi
11:16 pm70 °FRain. Overcast.No wind91%29.85 "Hg10 mi
10:57 pm69 °FPartly cloudy.No wind92%29.86 "Hg10 mi
10:35 pm66 °FClear.6 mph98%29.82 "Hg7 mi
10:16 pm66 °FClear.7 mph98%29.82 "Hg7 mi
9:55 pm67 °FClear.7 mph96%29.82 "Hg7 mi
9:37 pm67 °FFog.5 mph97%29.81 "Hg4 mi
9:19 pm67 °FFog.5 mph97%29.80 "Hg4 mi
8:56 pm66 °FFog.6 mph98%29.82 "Hg4 mi
8:16 pm68 °FSunny.7 mph95%29.83 "Hg10 mi
7:58 pm67 °FScattered clouds.6 mph96%29.83 "Hg10 mi
7:35 pm68 °FMore clouds than sun.7 mph93%29.87 "Hg10 mi
7:15 pm69 °FOvercast.7 mph91%29.87 "Hg10 mi
6:56 pm69 °FPartly sunny.8 mph92%29.88 "Hg10 mi
6:37 pm71 °FScattered clouds.8 mph87%29.88 "Hg10 mi
6:19 pm72 °FPartly sunny.8 mph87%29.88 "Hg10 mi
5:55 pm71 °FSunny.8 mph88%29.87 "Hg10 mi
5:35 pm71 °FScattered clouds.8 mph88%29.87 "Hg10 mi
5:16 pm70 °FPartly sunny.8 mph89%29.88 "Hg10 mi
4:58 pm70 °FPartly sunny.7 mph90%29.89 "Hg10 mi
4:35 pm70 °FPartly sunny.7 mph91%29.91 "Hg10 mi
4:16 pm71 °FLow clouds.6 mph90%29.93 "Hg10 mi
3:55 pm70 °FLow clouds.6 mph92%29.93 "Hg10 mi
3:37 pm69 °FFog.6 mph93%29.93 "Hg5 mi
3:19 pm68 °FFog.6 mph95%29.94 "Hg4 mi
2:56 pm68 °FFog.5 mph96%29.94 "Hg5 mi
2:36 pm67 °FFog.6 mph98%29.94 "Hg1 mi
2:16 pm65 °FFog.5 mph98%29.95 "Hg1 mi
1:57 pm65 °FFog.6 mph97%29.96 "Hg1 mi
1:40 pm65 °FFog.6 mph98%29.96 "Hg2 mi
1:16 pm66 °FLow clouds.6 mph98%29.97 "Hg7 mi
12:55 pm66 °FFog.6 mph98%29.97 "Hg5 mi
12:37 pm66 °FLight rain. Low clouds.6 mph97%29.98 "Hg5 mi
11:55 am64 °FDrizzle. Low clouds.5 mph97%30.00 "Hg4 mi
11:36 am64 °FLight rain. Low clouds.6 mph97%30.01 "Hg4 mi
11:16 am65 °FLight rain. Low clouds.6 mph98%30.01 "Hg5 mi
10:58 am65 °FDrizzle. Low clouds.8 mph97%30.01 "Hg7 mi
10:40 am64 °FLow clouds.8 mph98%30.00 "Hg7 mi
10:35 am64 °FLow clouds.9 mph97%30.00 "Hg7 mi
9:56 am64 °FRain. Low clouds.8 mph97%30.01 "Hg10 mi
9:37 am64 °FDrizzle. Low clouds.9 mph97%30.01 "Hg10 mi
9:18 am64 °FLight rain. Mostly cloudy.9 mph97%30.01 "Hg7 mi
8:56 am64 °FLight rain. Overcast.7 mph97%30.01 "Hg10 mi
8:35 am64 °FLight rain. More clouds than sun.8 mph97%30.02 "Hg10 mi
8:16 am64 °FLight rain. Cloudy.8 mph98%30.02 "Hg7 mi
7:58 am64 °FHeavy rain. Cloudy.8 mph97%30.03 "Hg2 mi
7:40 am64 °FRain. Cloudy.7 mph94%30.04 "Hg5 mi
7:35 am64 °FRain. Cloudy.8 mph90%30.03 "Hg7 mi
7:15 am65 °FCloudy.5 mph87%30.03 "Hg10 mi
6:55 am64 °FBroken clouds.5 mph86%30.02 "Hg10 mi
6:37 am64 °FBroken clouds.6 mph89%30.01 "Hg10 mi
6:19 am64 °FPartly sunny.7 mph87%30.01 "Hg10 mi
5:55 am63 °FPartly cloudy.6 mph90%30.01 "Hg10 mi
5:35 am63 °FOvercast.6 mph91%30.01 "Hg10 mi
5:16 am62 °FPassing clouds.6 mph92%30.01 "Hg10 mi
4:58 am62 °FClear.5 mph93%30.02 "Hg10 mi
4:35 am61 °FClear.No wind95%30.02 "Hg10 mi
3:56 am60 °FClear.3 mph97%30.01 "Hg10 mi
3:37 am61 °FClear.No wind96%30.02 "Hg10 mi
2:55 am61 °FClear.No wind96%30.02 "Hg10 mi
2:35 am62 °FPassing clouds.5 mph95%30.03 "Hg10 mi
2:15 am63 °FOvercast.5 mph93%30.04 "Hg10 mi
Weather by CustomWeather, © 2019

See weather overview

LIVE PARTIAL LUNAR ECLIPSE – Watch the eclipse as it happens